Regional Weather Roundup
Issued by NWS

Home | Current Version | Previous Version | Graphics & Text | Print | Product List | Glossary On
Versions: 1 2 3 4 5 6 7 8 9 10 11 12 13 14 15 16 17 18 19 20 21 22 23 24 25 26 27 28 29 30 31 32 33 34 35 36 37 38 39 40 41 42 43 44 45 46 47 48 49 50
678
ASUS43 KMKX 201200
RWRWI

WISCONSIN REGIONAL WEATHER ROUNDUP
NATIONAL WEATHER SERVICE MILWAUKEE/SULLIVAN WI
600 AM CST MON FEB 20 2017

NOTE: "FAIR" INDICATES FEW OR NO CLOUDS BELOW 12,000 FEET WITH NO
SIGNIFICANT WEATHER AND/OR OBSTRUCTIONS TO VISIBILITY.

WIZ001-002-006>008-014>016-023>028-201300-
NORTHWEST WISCONSIN

CITY           SKY/WX    TMP DP  RH WIND       PRES   REMARKS
SUPERIOR ARPT  MOCLDY    36  34  92 E12       29.91F WCI  28
ASHLAND        CLOUDY    45  35  68 SE6       29.94F
6HR MIN TEMP:  32; 6HR MAX TEMP:  45;

HAYWARD        CLOUDY    48  37  65 S8G24     29.92F
6HR MIN TEMP:  48; 6HR MAX TEMP:  51;

SIREN          CLOUDY    48  37  64 SE12      29.87R
CUMBERLAND     CLOUDY    41  34  75 SE9       29.91S
RICE LAKE      CLOUDY    45  36  70 SE16      29.93S
6HR MIN TEMP:  45; 6HR MAX TEMP:  46;

CHETEK         CLOUDY    44  36  74 SE12      29.95R
LADYSMITH      PTCLDY    43  35  72 E9        29.98F
6HR MIN TEMP:  43; 6HR MAX TEMP:  49;

EAU CLAIRE     NOT AVBL
MENOMONIE      CLOUDY    41  36  83 E8        29.91F
6HR MIN TEMP:  41; 6HR MAX TEMP:  45;

NEW RICHMOND   CLOUDY    47  39  73 SE10      29.87F
OSCEOLA        CLOUDY    48  40  75 SE9       29.88F
$$

WIZ003>005-009-010-017-018-201300-
NORTH CENTRAL WISCONSIN

CITY           SKY/WX    TMP DP  RH WIND       PRES   REMARKS
MANITOWISH WTR CLOUDY    40  30  68 SE10      30.03R WCI  33
ARBOR VITAE    PTCLDY    42  31  65 SE12G17   30.04R
WOODRUFF       PTCLDY    42  31  65 SE12G17   30.04R
RHINELANDER    PTCLDY    38  31  76 E8        30.06S WCI  32
6HR MIN TEMP:  37; 6HR MAX TEMP:  39;

EAGLE RIVER    CLOUDY    38  28  68 SE8       30.08R WCI  32
LAND O LAKES   CLOUDY    39  30  70 SE9       30.09R WCI  33
6HR MIN TEMP:  38; 6HR MAX TEMP:  40;

PHILLIPS       CLOUDY    40  32  73 SE8       29.99F WCI  34
6HR MIN TEMP:  40; 6HR MAX TEMP:  44;

TOMAHAWK       CLOUDY    38  29  69 SE3       30.05S
MEDFORD        CLOUDY    38  31  74 SE8       30.01S WCI  32
MERRILL        NOT AVBL
$$

WIZ029-030-035-036-043>047-201300-
CENTRAL WISCONSIN

CITY           SKY/WX    TMP DP  RH WIND       PRES   REMARKS
WAUSAU         CLOUDY    38  29  70 SE9       30.05S WCI  31
6HR MIN TEMP:  36; 6HR MAX TEMP:  40;

MOSINEE        PTCLDY    37  30  75 E8        30.06R WCI  31
MARSHFIELD     CLOUDY    40  32  73 E10       30.01S WCI  33
6HR MIN TEMP:  39; 6HR MAX TEMP:  43;

STEVENS POINT  CLOUDY    36  29  75 E6        30.07S WCI  32
WAUPACA        CLOUDY    36  31  84 CALM      30.09S
6HR MIN TEMP:  33; 6HR MAX TEMP:  39;

WAUTOMA        NOT AVBL
WISC RAPIDS    CLOUDY    41  34  76 E8        30.05R
6HR MIN TEMP:  39; 6HR MAX TEMP:  43;

CAMP DOUGLAS   NOT AVBL
$$

WIZ011>013-019>022-031-037>040-048>050-201300-
NORTHEAST WISCONSIN

CITY           SKY/WX    TMP DP  RH WIND       PRES   REMARKS
ANTIGO         CLOUDY    35  30  82 SE15      30.08F WCI  26
SHAWANO        PTCLDY    33  31  93 NE5       30.12F WCI  28
6HR MIN TEMP:  32; 6HR MAX TEMP:  35;

OCONTO         PTCLDY    31  29  94 CALM      30.15R
STURGEON BAY   CLOUDY    36  33  89 SE10      30.17R WCI  28
6HR MIN TEMP:  36; 6HR MAX TEMP:  37;

GREEN BAY      PTCLDY    35  32  88 E5        30.13S WCI  31
6HR MIN TEMP:  34; 6HR MAX TEMP:  36;

MANITOWOC      NOT AVBL
APPLETON       PTCLDY    39  27  60 E7        30.08F WCI  34
CLINTONVILLE   PTCLDY    34  30  86 NE3       30.10F
OSHKOSH        CLOUDY    41  29  62 SE10      30.08F
6HR MIN TEMP:  34; 6HR MAX TEMP:  41;

$$

WIZ032>034-041-042-053>061-201300-
SOUTHWEST WISCONSIN

CITY           SKY/WX    TMP DP  RH WIND       PRES   REMARKS
LA CROSSE      CLOUDY    52  44  74 SE9       29.95S
6HR MIN TEMP:  45; 6HR MAX TEMP:  54;

SPARTA         CLOUDY    48  42  80 E5        29.99R
6HR MIN TEMP:  42; 6HR MAX TEMP:  50;

VIROQUA        CLOUDY    47  42  84 SE13      29.98R
6HR MIN TEMP:  47; 6HR MAX TEMP:  49;

BOSCOBEL       MOCLDY    46  40  79 CALM      30.00S
6HR MIN TEMP:  45; 6HR MAX TEMP:  49;

PRAIRIE DU CHI PTCLDY    50  43  77 E8        29.98R
PLATTEVILLE    MOCLDY    43  43  99 E13       30.02R
$$

WIZ056-057-062-063-064-067-068-201300-
SOUTH CENTRAL WISCONSIN

CITY           SKY/WX    TMP DP  RH WIND       PRES   REMARKS
REEDSBURG      CLOUDY    39  38  93 CALM      30.04R
6HR MIN TEMP:  38; 6HR MAX TEMP:  51;

BARABOO/DELLS  CLOUDY    46  39  77 SE6       30.04S
LONE ROCK      NOT AVBL
MINERAL POINT  MOCLDY    48  45  87 SE10      30.03R
MADISON        MOCLDY    43  38  82 SE6       30.06S
6HR MIN TEMP:  43; 6HR MAX TEMP:  45;

MIDDLETON      PTCLDY    40  38  90 SE3       30.06S
6HR MIN TEMP:  38; 6HR MAX TEMP:  45;

WATERTOWN      CLOUDY    39  34  84 E7        30.09S WCI  34
MONROE         CLOUDY    45  43  93 SE12      30.05S
JANESVILLE     PTCLDY    41  41 100 SE8       30.07F FOG
$$

WIZ051-052-058>065-066-070>072-201300-
SOUTHEAST WISCONSIN

CITY           SKY/WX    TMP DP  RH WIND       PRES   REMARKS
MILWAUKEE      MOCLDY    38  32  79 CALM      30.13R
6HR MIN TEMP:  35; 6HR MAX TEMP:  39;

WAUKESHA       CLEAR     34  30  86 CALM      30.13R
MILWAUKEE/TIMM PTCLDY    34  28  80 CALM      30.13F
RACINE         PTCLDY    40  32  73 CALM      30.14R
6HR MIN TEMP:  35; 6HR MAX TEMP:  41;

KENOSHA        PTCLDY    40  34  79 SE3       30.12R
6HR MIN TEMP:  34; 6HR MAX TEMP:  42;

FOND DU LAC    PTCLDY    43  29  57 SE13      30.09F
6HR MIN TEMP:  39; 6HR MAX TEMP:  43;

SHEBOYGAN      CLOUDY    31  28  89 E3        30.14S
6HR MIN TEMP:  30; 6HR MAX TEMP:  32; 6HR PCP: TRACE;

WEST BEND      MOCLDY    32  30  93 CALM      30.13S
JUNEAU         PTCLDY    40  34  77 E10       30.10S WCI  34
$$

LSZ147-162-201300-
LAKE SUPERIOR

STATION/POSITION TIME  TEMP    WIND        PRES    WAVE
                       AIR SEA DIR/SP/G            HT/PER
                 (UTC) (F)     (DEG/KT/KT) (MB)    (FT/S)
DEVILS ISLAND    1100   44     140/  5/  7 1015.2R
PORT WING        1140   35     150/  1/  7 1013.2F
SAXON HARBOR     1130   48     180/ 10/ 18 1014.2S
$$

LMZ867-665-643>646-201300-
LAKE MICHIGAN

STATION/POSITION TIME  TEMP    WIND        PRES    WAVE
                       AIR SEA DIR/SP/G            HT/PER
                 (UTC) (F)     (DEG/KT/KT) (MB)    (FT/S)
CHAMBERS ISLAND  1140   35      70/  4/  5 1021.3R
NORTHPORT PIER   1140   34      CALM  /  3 1022.0R
SISTER BAY       1035   36     110/  9/ 13   N/A
ALGOMA LAKESHORE 1040             CALM       N/A
KEWAUNEE LAKESHO 1130   37      CALM  /  1 1020.9R
SHEBOYGAN LAKESH 1100   39     130/  2/  3 1021.3R
PORT WASHINGTON  1130   40      40/  5/  6 1021.3S
MILWAUKEE LAKESH 1130   40      90/  4/  4   N/A
KENOSHA   LAKESH 1100   39     160/  4/  5 1020.0
$$

TC  - TEMPERATURE IN CELSIUS
VSB - VISIBILITY IN STATUTE MILES
WCI - WIND CHILL INDEX
HX  - HEAT INDEX





USA.gov is the U.S. government's official web portal to all federal, state and local government web resources and services.